Soldotna, AK

6:19 PM AKST on December 17, 2017 (GMT -0900)
Soldotna

Weather History for PASX - November, 2010

Change the Weather History Date:

Tuesday, November 2, 2010

  Actual Average Record
Temperature  
Mean Temperature 34 °F -  
Max Temperature 39 °F 34 °F 52 °F (1962)
Min Temperature 28 °F 20 °F -11 °F (1985)
Degree Days  
Heating Degree Days 32    
Moisture  
Dew Point 30 °F    
Average Humidity 84    
Maximum Humidity 93    
Minimum Humidity 65    
Precipitation  
Precipitation 0.00 in - - ()
Sea Level Pressure  
Sea Level Pressure 29.50 in    
Wind  
Wind Speed 4 mph (SSE)    
Max Wind Speed 7 mph    
Max Gust Speed -    
Visibility 9 miles    
Events      
Averages and records for this station are not official NWS values.
T = Trace of Precipitation, MM = Missing Value Source: NWS Daily Summary

Daily Weather History Graph

Daily Weather History Graph

Search for Another Location

Airport or City:

Trip Planner

Search our weather history database for the weather conditions in past years. The results will help you decide how hot, cold, wet, or windy it might be!

Date:

Astronomy

Nov. 02, 2010 Rise Set
Actual Time 9:31 AM AKDT 6:02 PM AKDT
Civil Twilight 8:45 AM AKDT 6:48 PM AKDT
Nautical Twilight 7:54 AM AKDT 7:39 PM AKDT
Astronomical Twilight 7:05 AM AKDT 8:28 PM AKDT
Moon 4:36 AM AKDT (11/2) 4:30 PM AKDT (11/2)
Length of Visible Light 10h 03m
Length of Day
8h 31m
Waning Crescent, 15% of the Moon is Illuminated
Nov 2
Waning Crescent
Nov 5
New
Nov 13
First Quarter
Nov 21
Full
Nov 28
Last Quarter

Hourly Weather History & Observations

Time (AKDT) Temp. Windchill Dew Point Humidity Pressure Visibility Wind Dir Wind Speed Gust Speed Precip Events Conditions
12:56 AM 33.8 °F 28.6 °F 30.2 °F 87% 29.05 in 3.0 mi South 5.8 mph - N/A   Overcast
1:03 AM 33.8 °F 27.7 °F 30.2 °F 87% 29.05 in 2.5 mi South 6.9 mph - N/A   Overcast
1:35 AM 33.8 °F 28.6 °F 30.2 °F 87% 29.07 in 3.0 mi South 5.8 mph - N/A   Overcast
1:56 AM 33.8 °F 27.7 °F 30.2 °F 87% 29.08 in 5.0 mi SSW 6.9 mph - N/A   Overcast
2:56 AM 33.8 °F 29.6 °F 30.2 °F 87% 29.12 in 10.0 mi South 4.6 mph - N/A   Overcast
3:56 AM 33.8 °F 30.8 °F 30.2 °F 87% 29.15 in 7.0 mi South 3.5 mph - N/A   Overcast
4:56 AM 33.8 °F 28.6 °F 30.2 °F 87% 29.18 in 10.0 mi South 5.8 mph - N/A   Overcast
5:56 AM 33.8 °F 30.8 °F 30.2 °F 87% 29.23 in 10.0 mi South 3.5 mph - N/A   Overcast
6:56 AM 35.6 °F 31.7 °F 32.0 °F 87% 29.27 in 10.0 mi SE 4.6 mph - N/A   Overcast
7:56 AM 35.6 °F 31.7 °F 30.2 °F 81% 29.32 in 10.0 mi South 4.6 mph - N/A   Overcast
8:56 AM 35.6 °F - 30.2 °F 81% 29.38 in 10.0 mi Calm Calm - N/A   Mostly Cloudy
9:56 AM 33.8 °F - 28.4 °F 81% 29.45 in 10.0 mi Calm Calm - N/A   Scattered Clouds
10:56 AM 35.6 °F - 30.2 °F 81% 29.51 in 10.0 mi Calm Calm - N/A   Clear
11:56 AM 37.4 °F - 28.4 °F 70% 29.58 in 10.0 mi Calm Calm - N/A   Clear
12:56 PM 35.6 °F - 32.0 °F 87% 29.64 in 10.0 mi Calm Calm - N/A   Clear
1:56 PM 39.2 °F 35.9 °F 28.4 °F 65% 29.68 in 10.0 mi SSE 4.6 mph - N/A   Clear
2:56 PM 37.4 °F 33.8 °F 30.2 °F 75% 29.71 in 10.0 mi ESE 4.6 mph - N/A   Mostly Cloudy
3:56 PM 39.2 °F 34.2 °F 30.2 °F 70% 29.74 in 10.0 mi ESE 6.9 mph - N/A   Clear
4:56 PM 35.6 °F 31.7 °F 30.2 °F 81% 29.77 in 10.0 mi ESE 4.6 mph - N/A   Mostly Cloudy
5:56 PM 32.0 °F - 28.4 °F 87% 29.79 in 10.0 mi Calm Calm - N/A   Mostly Cloudy
6:56 PM 30.2 °F - 26.6 °F 86% 29.82 in 10.0 mi Calm Calm - N/A   Mostly Cloudy
7:56 PM 30.2 °F 26.7 °F 28.4 °F 93% 29.84 in 10.0 mi East 3.5 mph - N/A   Scattered Clouds
8:56 PM 28.4 °F - 26.6 °F 93% 29.86 in 10.0 mi Calm Calm - N/A   Mostly Cloudy
9:56 PM 33.8 °F 30.8 °F 28.4 °F 81% 29.89 in 10.0 mi ENE 3.5 mph - N/A   Overcast
10:56 PM 30.2 °F 26.7 °F 28.4 °F 93% 29.90 in 10.0 mi East 3.5 mph - N/A   Overcast
11:56 PM 30.2 °F - 28.4 °F 93% 29.91 in 10.0 mi Calm Calm - N/A   Overcast